[[{"header":{"parameterUnit":"m.s-1","parameterCategory":1,"la1":30.2991,"la2":30.254,"lo1":-89.0895,"lo2":-89.0444,"dy":0.0017,"dx":0.0017,"nx":28,"ny":28,"refTime":"2024-10-06T03:00:00:Z","depth":0,"parameterNumber":2,"parameterNumberName":"U-component_of_WINDS"},"data":[0,0,0,0,0,0,0,0,0,0,0,0,0,0,0,0,0,0,0,0,0,0,0,0,0,0,0,0,0,0,0,0,0,0,0,0,0,0,0,0,0,0,0,0,0,0,0,0,0,0,0,0,0,0,0,0,0,0,-2.6214,-2.6215,0,-2.6297,-2.6298,-2.6299,-2.6208,-2.6205,-2.6201,-2.6198,-2.6289,-2.6294,-2.63,0,0,0,0,0,0,0,0,0,0,0,0,0,-2.5982,-2.5986,-2.6214,-2.6215,-2.6216,-2.6297,-2.6298,-2.63,-2.6209,-2.6205,-2.62,-2.6197,-2.6287,-2.6294,-2.63,0,0,0,0,0,0,0,0,0,0,0,0,0,-2.6076,-2.5988,-2.6214,-2.6181,-2.6178,-2.6297,-2.6299,-2.63,-2.621,-2.6205,-2.6199,-2.6195,-2.6285,-2.6293,-2.6301,-2.6458,0,0,-2.6327,-2.6331,0,0,0,0,0,0,0,0,-2.6071,-2.6084,-2.6185,-2.6183,-2.6181,-2.6237,-2.625,-2.6353,-2.6211,-2.6198,-2.6198,-2.6192,-2.6276,-2.6285,-2.6312,-2.6463,-2.6466,-2.6328,-2.6333,-2.6337,-2.6339,0,0,0,0,0,0,0,-2.6064,-2.608,-2.6247,-2.6186,-2.6184,-2.6163,-2.6171,-2.6269,-2.6266,-2.6199,-2.6192,-2.6203,-2.6274,-2.6304,-2.6314,-2.6468,-2.6328,-2.6335,-2.634,-2.6344,-2.6754,-2.676,0,0,0,0,0,0,-2.6061,-2.6076,-2.6245,-2.625,-2.6112,-2.6172,-2.618,-2.6224,-2.6264,-2.6265,-2.6208,-2.6199,-2.6292,-2.6304,-2.6317,-2.6506,-2.6337,-2.6345,-2.635,-2.6749,-2.6756,-2.6762,0,0,0,0,0,0,-2.6056,-2.6077,-2.6241,-2.6161,-2.618,-2.6181,-2.6232,-2.6229,-2.6259,-2.6271,-2.627,-2.6239,-2.6289,-2.6305,-2.6424,-2.6508,-2.6348,-2.6356,-2.6742,-2.6751,-2.6759,-2.6885,0,0,0,0,0,0,-2.605,-2.6075,-2.6134,-2.6163,-2.6185,-2.6346,-2.6237,-2.6234,-2.6273,-2.6262,-2.63,-2.6301,-2.6286,-2.6412,-2.6433,-2.6517,-2.6363,-2.6734,-2.6746,-2.6756,-2.6873,-2.6897,-2.6917,0,0,0,0,0,-2.6042,-2.6167,-2.6138,-2.6159,-2.6258,-2.6351,-2.6364,-2.6342,-2.628,-2.634,-2.6348,-2.63,-2.6494,-2.6425,-2.6447,-2.6535,-2.6729,-2.6742,-2.6755,-2.6863,-2.6892,-2.6916,0,0,0,0,0,0,-2.615,-2.617,-2.6138,-2.6275,-2.6312,-2.6336,-2.6411,-2.6373,-2.6429,-2.6417,-2.6389,-2.6398,-2.6526,-2.6542,-2.6464,-2.6691,-2.6602,-2.662,-2.6677,-2.6704,-2.6725,-2.6721,-2.637,0,0,0,0,0,-2.6189,-2.6261,-2.6276,-2.6396,-2.6416,-2.641,-2.645,-2.643,-2.6468,-2.6483,-2.65,-2.654,-2.661,-2.6657,-2.6722,-2.6873,-2.6883,-2.6945,-2.6967,-2.6985,-2.7002,-2.7087,-2.7116,-2.6805,-2.6805,-2.6804,0,0,-2.6272,-2.6292,-2.634,-2.6418,-2.6444,-2.6522,-2.6424,-2.651,-2.6569,-2.6497,-2.6611,-2.6625,-2.6667,-2.6805,-2.6866,-2.6822,-2.709,-2.7001,-2.7015,-2.7024,-2.7104,-2.7133,-2.7159,-2.6814,-2.6812,-2.6811,0,0,-2.6464,-2.6485,-2.6589,-2.6617,-2.6657,-2.6652,-2.6677,-2.6707,-2.6713,-2.6826,-2.6775,-2.6844,-2.6965,-2.6998,-2.7031,-2.7236,-2.7195,-2.7257,-2.7373,-2.7456,-2.7481,-2.7502,-2.758,-2.7607,-2.7274,-2.7274,-2.7274,0,-2.6563,-2.6677,-2.6647,-2.6738,-2.6775,-2.6711,-2.6818,-2.6847,-2.6907,-2.6935,-2.6884,-2.7035,-2.7059,-2.7205,-2.7255,-2.7282,-2.7313,-2.7255,-2.7479,-2.7501,-2.7521,-2.7594,-2.7622,-2.7282,-2.7281,-2.728,-2.7279,0,-2.6799,-2.6878,-2.6958,-2.7017,-2.7062,-2.716,-2.7147,-2.7197,-2.7173,-2.7174,-2.7293,-2.7319,-2.7389,-2.7421,-2.7398,-2.7565,-2.7537,-2.7483,-2.7394,-2.7558,-2.7627,-2.7654,-2.7293,-2.729,-2.7288,-2.7286,0,0,-2.7064,-2.7104,-2.7135,-2.7162,-2.7201,-2.7263,-2.7358,-2.7426,-2.7471,-2.7514,-2.7596,-2.77,-2.765,-2.7688,-2.7668,-2.774,-2.7905,-2.7677,-2.7678,-2.7723,-2.8095,-2.8139,-2.8171,-2.7876,-2.7882,-2.7886,-2.8093,0,-2.726,-2.7425,-2.7401,-2.7561,-2.7637,-2.7577,-2.766,-2.7695,-2.7699,-2.7764,-2.7768,-2.7844,-2.7771,-2.7793,-2.7862,-2.7871,-2.7981,-2.7855,-2.7957,-2.7961,-2.7953,-2.8206,-2.8253,-2.8447,-2.8119,-2.8123,-2.8126,0,-2.7512,-2.7563,-2.7731,-2.776,-2.7791,-2.7866,-2.7927,-2.7989,-2.8028,-2.8026,-2.8067,-2.8035,-2.8133,-2.8039,-2.8176,-2.8091,-2.8131,-2.8142,-2.8149,-2.8161,-2.8057,-2.823,-2.8508,-2.8539,-2.8168,-2.8164,-2.8161,0,-2.7694,-2.7805,-2.792,-2.7944,-2.798,-2.8035,-2.8053,-2.8086,-2.8129,-2.8182,-2.821,-2.8274,-2.8311,-2.8362,-2.8349,-2.8281,-2.8491,-2.8395,-2.8496,-2.8497,-2.8546,-2.8544,-2.8839,-2.8564,-2.8564,-2.8563,-2.8563,0,-2.7918,-2.8024,-2.8003,-2.8075,-2.8192,-2.8163,-2.8281,-2.8291,-2.8321,-2.8396,-2.8346,-2.8418,-2.8393,-2.8464,-2.8453,-2.8571,-2.8587,-2.859,-2.8587,-2.8598,-2.8598,-2.8627,-2.8615,-2.8571,-2.8569,-2.8568,-2.8567,0,-2.8144,-2.8133,-2.8256,-2.8279,-2.8287,-2.8373,-2.8394,-2.8463,-2.8461,-2.8556,-2.8576,-2.8576,-2.8656,-2.8647,-2.8737,-2.873,-2.8877,-2.8856,-2.8865,-2.8862,-2.8965,-2.8957,-2.9292,-2.9337,-2.9029,-2.9032,-2.9034,0,-2.829,-2.837,-2.8402,-2.8447,-2.8469,-2.8542,-2.8585,-2.856,-2.8607,-2.8657,-2.8721,-2.8796,-2.8855,-2.8987,-2.8996,-2.9066,-2.9048,-2.9161,-2.9059,-2.9068,-2.9056,-2.9053,-2.9063,-2.9183,-2.9186,-2.9189,-2.9191,0,-2.8552,-2.8543,-2.8606,-2.8668,-2.872,-2.8768,-2.8811,-2.8852,-2.8831,-2.8887,-2.8967,-2.9013,-2.9105,-2.9182,-2.9247,-2.9268,-2.9229,-2.9222,-2.925,-2.9264,-2.9268,-2.9272,-2.8925,-2.9216,-2.9214,-2.9212,-2.9211,-2.921,-2.8746,-2.8815,-2.8849,-2.8921,-2.895,-2.8992,-2.9058,-2.9064,-2.9131,-2.9203,-2.9183,-2.9276,-2.9314,-2.9397,-2.9424,-2.9498,-2.9458,-2.9497,-2.9508,-2.9519,-2.9534,-2.9252,-2.9509,-2.9509,-2.9508,-2.9507,-2.9507,0,-2.9009,-2.9027,-2.9094,-2.9155,-2.9213,-2.9166,-2.9212,-2.9264,-2.9346,-2.9383,-2.9443,-2.9537,-2.9612,-2.9626,-2.9698,-2.9754,-2.9738,-2.9775,-2.9773,-2.9779,-2.9563,-2.9534,-2.9787,-2.9787,-2.9787,-2.9787,-2.9786,-2.9786,-2.9153,-2.927,-2.9264,-2.9395,-2.9412,-2.9502,-2.9533,-2.9572,-2.9602,-2.9709,-2.977,-2.9778,-2.9807,-2.988,-2.9948,-2.995,-2.9981,-3.0026,-3.0022,-2.9821,-2.9794,-2.9767,-2.974,-3.0032,-3.0032,-3.0232,-3.0234,-3.0235]},{"header":{"parameterUnit":"m.s-1","parameterCategory":1,"la1":30.2991,"la2":30.254,"lo1":-89.0895,"lo2":-89.0444,"dy":0.0017,"dx":0.0017,"nx":28,"ny":28,"refTime":"2024-10-06T03:00:00:Z","depth":0,"parameterNumber":3,"parameterNumberName":"V-component_of_WINDS"},"data":[0,0,0,0,0,0,0,0,0,0,0,0,0,0,0,0,0,0,0,0,0,0,0,0,0,0,0,0,0,0,0,0,0,0,0,0,0,0,0,0,0,0,0,0,0,0,0,0,0,0,0,0,0,0,0,0,0,0,-3.5574,-3.5574,0,-3.5563,-3.5563,-3.5563,-3.5506,-3.5505,-3.5503,-3.5502,-3.5491,-3.5492,-3.5493,0,0,0,0,0,0,0,0,0,0,0,0,0,-3.5546,-3.5547,-3.5574,-3.5574,-3.5574,-3.5563,-3.5563,-3.5563,-3.5506,-3.5505,-3.5503,-3.5502,-3.549,-3.5492,-3.5493,0,0,0,0,0,0,0,0,0,0,0,0,0,-3.5549,-3.5547,-3.5574,-3.5545,-3.5542,-3.5563,-3.5563,-3.5563,-3.5507,-3.5505,-3.5503,-3.5501,-3.549,-3.5491,-3.5493,-3.5542,0,0,-3.5497,-3.5498,0,0,0,0,0,0,0,0,-3.5549,-3.555,-3.5549,-3.5547,-3.5544,-3.5534,-3.5549,-3.5556,-3.5507,-3.552,-3.5502,-3.55,-3.5507,-3.5507,-3.5509,-3.5542,-3.5541,-3.5497,-3.5498,-3.5499,-3.5499,0,0,0,0,0,0,0,-3.5549,-3.555,-3.557,-3.5549,-3.5546,-3.5531,-3.553,-3.555,-3.5525,-3.5519,-3.5515,-3.5514,-3.5505,-3.5508,-3.5508,-3.5541,-3.5497,-3.5499,-3.5499,-3.55,-3.5611,-3.5613,0,0,0,0,0,0,-3.5553,-3.555,-3.557,-3.557,-3.5541,-3.5534,-3.5532,-3.5539,-3.5524,-3.552,-3.5516,-3.5511,-3.5506,-3.5507,-3.5508,-3.5563,-3.5499,-3.55,-3.5501,-3.5609,-3.5612,-3.5614,0,0,0,0,0,0,-3.5552,-3.5555,-3.5571,-3.5559,-3.556,-3.5536,-3.5545,-3.554,-3.5543,-3.5522,-3.5517,-3.5523,-3.5505,-3.5506,-3.5533,-3.5562,-3.5501,-3.5502,-3.5607,-3.561,-3.5613,-3.5675,0,0,0,0,0,0,-3.5552,-3.5555,-3.5574,-3.556,-3.5561,-3.5597,-3.5547,-3.5541,-3.5545,-3.554,-3.5528,-3.5524,-3.5503,-3.5532,-3.5535,-3.5563,-3.5503,-3.5604,-3.5608,-3.5612,-3.567,-3.5679,-3.5688,0,0,0,0,0,-3.5551,-3.5592,-3.5575,-3.5578,-3.5584,-3.5599,-3.5599,-3.5574,-3.5548,-3.5566,-3.5553,-3.5525,-3.5558,-3.5535,-3.5538,-3.5567,-3.5602,-3.5607,-3.5612,-3.5666,-3.5678,-3.5687,0,0,0,0,0,0,-3.5611,-3.559,-3.5571,-3.5609,-3.5606,-3.5589,-3.5612,-3.5588,-3.5592,-3.5587,-3.5556,-3.5553,-3.5586,-3.5579,-3.5553,-3.5613,-3.5575,-3.5581,-3.5616,-3.5626,-3.5635,-3.5636,-3.5504,0,0,0,0,0,-3.5629,-3.5643,-3.5624,-3.5659,-3.5659,-3.5636,-3.5641,-3.5622,-3.5618,-3.5617,-3.5605,-3.5602,-3.5612,-3.5619,-3.5627,-3.5669,-3.5665,-3.569,-3.5699,-3.5706,-3.5711,-3.5731,-3.5742,-3.5629,-3.5629,-3.5629,0,0,-3.5666,-3.5656,-3.5667,-3.5671,-3.5667,-3.5681,-3.5635,-3.5653,-3.5664,-3.5619,-3.5644,-3.5636,-3.5631,-3.5665,-3.568,-3.5661,-3.5741,-3.5712,-3.5718,-3.5719,-3.5737,-3.5748,-3.5757,-3.5633,-3.5632,-3.5632,0,0,-3.5739,-3.5734,-3.5762,-3.5758,-3.5752,-3.5736,-3.5743,-3.573,-3.5722,-3.5747,-3.5713,-3.5725,-3.5743,-3.574,-3.5741,-3.5813,-3.5786,-3.5816,-3.5862,-3.5882,-3.5891,-3.5898,-3.5922,-3.5932,-3.5821,-3.5821,-3.5822,0,-3.5786,-3.5807,-3.578,-3.5799,-3.5802,-3.5762,-3.5789,-3.5787,-3.5784,-3.5786,-3.5765,-3.5785,-3.5779,-3.5811,-3.5829,-3.5831,-3.5837,-3.5817,-3.5892,-3.5899,-3.5906,-3.5928,-3.5938,-3.5825,-3.5825,-3.5824,-3.5824,0,-3.5863,-3.5879,-3.5902,-3.5899,-3.5904,-3.5928,-3.5903,-3.5912,-3.5892,-3.5878,-3.5903,-3.5894,-3.5899,-3.5905,-3.5887,-3.5935,-3.5923,-3.5897,-3.5859,-3.592,-3.5941,-3.595,-3.583,-3.5829,-3.5828,-3.5827,0,0,-3.5975,-3.5956,-3.5965,-3.5962,-3.5952,-3.5963,-3.5984,-3.5988,-3.5995,-3.5995,-3.6011,-3.6026,-3.6002,-3.6003,-3.5984,-3.6001,-3.6057,-3.5973,-3.5972,-3.5988,-3.6107,-3.6126,-3.6136,-3.604,-3.6041,-3.6042,-3.6107,0,-3.6045,-3.608,-3.6055,-3.6094,-3.6107,-3.6069,-3.6088,-3.6083,-3.6071,-3.608,-3.6066,-3.6077,-3.6045,-3.6045,-3.6061,-3.6047,-3.608,-3.6042,-3.6054,-3.6054,-3.6055,-3.6147,-3.6167,-3.6229,-3.6115,-3.6117,-3.6118,0,-3.6131,-3.6132,-3.6173,-3.6158,-3.6162,-3.618,-3.618,-3.619,-3.6183,-3.6173,-3.6174,-3.6149,-3.6168,-3.6132,-3.6157,-3.6132,-3.6135,-3.6129,-3.6131,-3.613,-3.6089,-3.6148,-3.6248,-3.6257,-3.613,-3.6129,-3.6129,0,-3.6206,-3.6219,-3.6244,-3.6243,-3.6227,-3.624,-3.6234,-3.6225,-3.6229,-3.623,-3.6231,-3.6235,-3.6237,-3.624,-3.6217,-3.6192,-3.6245,-3.6206,-3.6236,-3.6236,-3.6248,-3.6247,-3.6349,-3.6252,-3.6252,-3.6252,-3.6252,0,-3.6285,-3.6311,-3.6277,-3.6293,-3.632,-3.6291,-3.6319,-3.6309,-3.6302,-3.6314,-3.6282,-3.6294,-3.6263,-3.6272,-3.6255,-3.6278,-3.6279,-3.6271,-3.6265,-3.6273,-3.6274,-3.6274,-3.6268,-3.6255,-3.6254,-3.6254,-3.6253,0,-3.6374,-3.6352,-3.6377,-3.6359,-3.6355,-3.6376,-3.6361,-3.6374,-3.636,-3.6376,-3.6378,-3.6355,-3.6363,-3.6341,-3.6347,-3.6334,-3.6367,-3.6356,-3.6369,-3.6365,-3.6395,-3.6392,-3.6499,-3.6511,-3.6409,-3.641,-3.6411,0,-3.6425,-3.6444,-3.6428,-3.6434,-3.6429,-3.6439,-3.6442,-3.6415,-3.6419,-3.6412,-3.6426,-3.6432,-3.6435,-3.6451,-3.6435,-3.6438,-3.6426,-3.6463,-3.6426,-3.6432,-3.6424,-3.6423,-3.6424,-3.647,-3.6472,-3.6473,-3.6474,0,-3.6518,-3.6506,-3.6512,-3.6513,-3.6518,-3.6518,-3.6516,-3.6522,-3.6493,-3.6499,-3.6507,-3.651,-3.6515,-3.6521,-3.6521,-3.6514,-3.6489,-3.6485,-3.6492,-3.6499,-3.6505,-3.6501,-3.6388,-3.6483,-3.6482,-3.6481,-3.6481,-3.648,-3.6589,-3.6603,-3.6593,-3.66,-3.6595,-3.6594,-3.6605,-3.6591,-3.6597,-3.6599,-3.6582,-3.6594,-3.6585,-3.6583,-3.6579,-3.6587,-3.657,-3.658,-3.6582,-3.6585,-3.6589,-3.6505,-3.6587,-3.6587,-3.6586,-3.6586,-3.6586,0,-3.6678,-3.667,-3.6677,-3.6674,-3.6679,-3.6655,-3.6651,-3.6657,-3.6667,-3.6661,-3.6665,-3.6674,-3.6679,-3.6663,-3.6666,-3.6675,-3.6663,-3.6677,-3.6675,-3.6673,-3.6605,-3.6598,-3.6686,-3.6686,-3.6686,-3.6686,-3.6686,-3.6686,-3.6726,-3.6748,-3.6735,-3.6754,-3.6745,-3.6755,-3.6755,-3.6753,-3.6748,-3.6759,-3.6763,-3.6753,-3.6742,-3.6744,-3.6747,-3.6742,-3.6744,-3.6761,-3.6752,-3.6688,-3.6679,-3.6669,-3.6662,-3.6762,-3.6763,-3.682,-3.682,-3.6821]}]]